Time,TemperatureF,DewpointF,PressureIn,WindDirection,WindDirectionDegrees,WindSpeedMPH,WindSpeedGustMPH,Humidity,HourlyPrecipIn,Conditions,Clouds,dailyrainin,SolarRadiationWatts/m^2,SoftwareType,DateUTC
2013-09-20 00:04:00,40.6,31.6,29.99,SSE,153,1.0,2.0,70,0.00,,,0.00,0,Wunderground v.1.15,2013-09-20 06:04:00,
2013-09-20 00:10:00,40.3,30.9,29.98,SSE,153,0.0,0.0,69,0.00,,,0.00,0,Wunderground v.1.15,2013-09-20 06:10:00,
2013-09-20 00:16:00,39.9,30.9,29.99,SSE,153,0.0,0.0,70,0.00,,,0.00,0,Wunderground v.1.15,2013-09-20 06:16:00,
2013-09-20 00:22:00,39.5,30.9,29.98,SSE,153,0.0,0.0,71,0.00,,,0.00,0,Wunderground v.1.15,2013-09-20 06:22:00,
2013-09-20 00:28:00,39.1,31.2,29.98,SSE,153,0.0,0.0,73,0.00,,,0.00,0,Wunderground v.1.15,2013-09-20 06:28:00,
2013-09-20 00:34:00,38.8,30.9,29.98,SSE,153,0.0,0.0,73,0.00,,,0.00,0,Wunderground v.1.15,2013-09-20 06:34:00,
2013-09-20 00:42:00,38.3,31.1,29.98,SSE,153,0.0,0.0,75,0.00,,,0.00,0,Wunderground v.1.15,2013-09-20 06:42:00,
2013-09-20 00:50:00,37.9,31.3,29.98,SSE,152,1.0,1.0,77,0.00,,,0.00,0,Wunderground v.1.15,2013-09-20 06:50:00,
2013-09-20 00:58:00,37.9,31.7,29.98,SSE,152,0.0,1.0,78,0.00,,,0.00,0,Wunderground v.1.15,2013-09-20 06:58:00,
2013-09-20 01:04:00,37.9,31.7,29.97,SSE,156,1.0,4.0,78,0.00,,,0.00,0,Wunderground v.1.15,2013-09-20 07:04:00,
2013-09-20 01:10:00,37.9,31.7,29.98,SE,146,4.0,5.0,78,0.00,,,0.00,0,Wunderground v.1.15,2013-09-20 07:10:00,
2013-09-20 01:16:00,37.7,31.1,29.97,SE,146,4.0,5.0,77,0.00,,,0.00,0,Wunderground v.1.15,2013-09-20 07:16:00,
2013-09-20 01:22:00,37.5,31.6,29.97,SSE,153,4.0,6.0,79,0.00,,,0.00,0,Wunderground v.1.15,2013-09-20 07:22:00,
2013-09-20 01:28:00,37.6,31.4,29.97,SSE,153,4.0,6.0,78,0.00,,,0.00,0,Wunderground v.1.15,2013-09-20 07:28:00,
2013-09-20 01:34:00,37.5,31.3,29.97,SSE,148,4.0,5.0,78,0.00,,,0.00,0,Wunderground v.1.15,2013-09-20 07:34:00,
2013-09-20 01:40:00,37.4,31.5,29.97,SE,144,5.0,5.0,79,0.00,,,0.00,0,Wunderground v.1.15,2013-09-20 07:40:00,
2013-09-20 01:46:00,37.4,31.8,29.97,SE,135,3.0,5.0,80,0.00,,,0.00,0,Wunderground v.1.15,2013-09-20 07:46:00,
2013-09-20 01:52:00,37.4,32.1,29.97,SE,140,3.0,4.0,81,0.00,,,0.00,0,Wunderground v.1.15,2013-09-20 07:52:00,
2013-09-20 01:58:00,37.5,32.2,29.98,SE,140,4.0,7.0,81,0.00,,,0.00,0,Wunderground v.1.15,2013-09-20 07:58:00,
2013-09-20 02:04:00,37.4,31.5,29.97,SE,138,4.0,5.0,79,0.00,,,0.00,0,Wunderground v.1.15,2013-09-20 08:04:00,
2013-09-20 02:10:00,37.3,31.7,29.98,SE,138,4.0,4.0,80,0.00,,,0.00,0,Wunderground v.1.15,2013-09-20 08:10:00,
2013-09-20 02:16:00,37.3,31.7,29.98,SE,144,4.0,6.0,80,0.00,,,0.00,0,Wunderground v.1.15,2013-09-20 08:16:00,
2013-09-20 02:22:00,37.4,31.8,29.98,SE,144,4.0,4.0,80,0.00,,,0.00,0,Wunderground v.1.15,2013-09-20 08:22:00,
2013-09-20 02:28:00,37.5,31.9,29.97,SE,142,3.0,6.0,80,0.00,,,0.00,0,Wunderground v.1.15,2013-09-20 08:28:00,
2013-09-20 02:36:00,37.6,32.3,29.97,SE,138,4.0,5.0,81,0.00,,,0.00,0,Wunderground v.1.15,2013-09-20 08:36:00,
2013-09-20 02:42:00,37.8,32.5,29.97,SE,136,4.0,5.0,81,0.00,,,0.00,0,Wunderground v.1.15,2013-09-20 08:42:00,
2013-09-20 02:50:00,38.3,32.7,29.97,SE,140,5.0,5.0,80,0.00,,,0.00,0,Wunderground v.1.15,2013-09-20 08:50:00,
2013-09-20 02:56:00,38.6,32.6,29.97,SE,132,5.0,5.0,79,0.00,,,0.00,0,Wunderground v.1.15,2013-09-20 08:56:00,
2013-09-20 03:02:00,38.8,32.5,29.97,SE,134,4.0,4.0,78,0.00,,,0.00,0,Wunderground v.1.15,2013-09-20 09:02:00,
2013-09-20 03:10:00,38.7,32.1,29.97,SSE,167,4.0,4.0,77,0.00,,,0.00,0,Wunderground v.1.15,2013-09-20 09:10:00,
2013-09-20 03:16:00,38.5,32.2,29.96,SE,140,4.0,5.0,78,0.00,,,0.00,0,Wunderground v.1.15,2013-09-20 09:16:00,
2013-09-20 03:22:00,38.2,32.3,29.97,SE,134,4.0,6.0,79,0.00,,,0.00,0,Wunderground v.1.15,2013-09-20 09:22:00,
2013-09-20 03:28:00,38.0,32.1,29.96,SSE,157,4.0,6.0,79,0.00,,,0.00,0,Wunderground v.1.15,2013-09-20 09:28:00,
2013-09-20 03:34:00,37.9,32.0,29.96,SSE,153,4.0,5.0,79,0.00,,,0.00,0,Wunderground v.1.15,2013-09-20 09:34:00,
2013-09-20 03:40:00,37.9,32.3,29.96,SE,139,4.0,8.0,80,0.00,,,0.00,0,Wunderground v.1.15,2013-09-20 09:40:00,
2013-09-20 03:46:00,38.0,32.1,29.96,SE,135,5.0,8.0,79,0.00,,,0.00,0,Wunderground v.1.15,2013-09-20 09:46:00,
2013-09-20 03:54:00,38.1,32.5,29.96,SE,134,5.0,9.0,80,0.00,,,0.00,0,Wunderground v.1.15,2013-09-20 09:54:00,
2013-09-20 04:00:00,38.4,32.5,29.96,SE,136,6.0,6.0,79,0.00,,,0.00,0,Wunderground v.1.15,2013-09-20 10:00:00,
2013-09-20 04:06:00,38.6,32.3,29.96,SE,134,4.0,6.0,78,0.00,,,0.00,0,Wunderground v.1.15,2013-09-20 10:06:00,
2013-09-20 04:12:00,38.4,32.1,29.95,SE,146,4.0,4.0,78,0.00,,,0.00,0,Wunderground v.1.15,2013-09-20 10:12:00,
2013-09-20 04:18:00,38.2,31.9,29.95,SE,146,5.0,6.0,78,0.00,,,0.00,0,Wunderground v.1.15,2013-09-20 10:18:00,
2013-09-20 04:24:00,38.2,32.3,29.96,SE,140,5.0,5.0,79,0.00,,,0.00,0,Wunderground v.1.15,2013-09-20 10:24:00,
2013-09-20 04:30:00,38.2,32.3,29.95,SE,137,4.0,4.0,79,0.00,,,0.00,0,Wunderground v.1.15,2013-09-20 10:30:00,
2013-09-20 04:36:00,38.4,32.5,29.95,SE,131,4.0,6.0,79,0.00,,,0.00,0,Wunderground v.1.15,2013-09-20 10:36:00,
2013-09-20 04:42:00,38.6,32.3,29.95,South,184,5.0,11.0,78,0.00,,,0.00,0,Wunderground v.1.15,2013-09-20 10:42:00,
2013-09-20 04:48:00,38.9,32.3,29.95,South,180,7.0,11.0,77,0.00,,,0.00,0,Wunderground v.1.15,2013-09-20 10:48:00,
2013-09-20 04:56:00,39.2,32.6,29.95,SE,132,6.0,7.0,77,0.00,,,0.00,0,Wunderground v.1.15,2013-09-20 10:56:00,
2013-09-20 05:04:00,39.9,32.6,29.95,SSE,148,6.0,7.0,75,0.00,,,0.00,0,Wunderground v.1.15,2013-09-20 11:04:00,
2013-09-20 05:10:00,39.8,32.5,29.95,SE,143,5.0,6.0,75,0.00,,,0.00,0,Wunderground v.1.15,2013-09-20 11:10:00,
2013-09-20 05:18:00,39.3,32.4,29.95,SSE,147,6.0,7.0,76,0.00,,,0.00,0,Wunderground v.1.15,2013-09-20 11:18:00,
2013-09-20 05:28:00,38.8,32.2,29.95,SSE,148,7.0,7.0,77,0.00,,,0.00,0,Wunderground v.1.15,2013-09-20 11:28:00,
2013-09-20 05:36:00,38.5,31.9,29.95,SE,139,7.0,7.0,77,0.00,,,0.00,0,Wunderground v.1.15,2013-09-20 11:36:00,
2013-09-20 05:42:00,38.5,32.2,29.95,SE,146,6.0,6.0,78,0.00,,,0.00,0,Wunderground v.1.15,2013-09-20 11:42:00,
2013-09-20 05:48:00,38.4,32.1,29.95,SE,143,4.0,6.0,78,0.00,,,0.00,0,Wunderground v.1.15,2013-09-20 11:48:00,
2013-09-20 05:54:00,38.3,32.0,29.95,SE,133,4.0,5.0,78,0.00,,,0.00,0,Wunderground v.1.15,2013-09-20 11:54:00,
2013-09-20 06:02:00,38.3,32.4,29.95,SE,128,6.0,9.0,79,0.00,,,0.00,0,Wunderground v.1.15,2013-09-20 12:02:00,
2013-09-20 06:08:00,38.5,32.2,29.95,SE,144,7.0,9.0,78,0.00,,,0.00,0,Wunderground v.1.15,2013-09-20 12:08:00,
2013-09-20 06:14:00,38.6,32.0,29.94,SSE,153,7.0,9.0,77,0.00,,,0.00,0,Wunderground v.1.15,2013-09-20 12:14:00,
2013-09-20 06:20:00,38.7,32.1,29.94,South,175,7.0,7.0,77,0.00,,,0.00,0,Wunderground v.1.15,2013-09-20 12:20:00,
2013-09-20 06:26:00,38.7,32.1,29.94,SSE,163,6.0,7.0,77,0.00,,,0.00,0,Wunderground v.1.15,2013-09-20 12:26:00,
2013-09-20 06:32:00,38.6,32.0,29.94,SSE,165,6.0,7.0,77,0.00,,,0.00,0,Wunderground v.1.15,2013-09-20 12:32:00,
2013-09-20 06:40:00,38.6,32.0,29.94,SE,128,5.0,5.0,77,0.00,,,0.00,0,Wunderground v.1.15,2013-09-20 12:40:00,
2013-09-20 06:46:00,38.5,31.9,29.94,SE,139,5.0,6.0,77,0.00,,,0.00,0,Wunderground v.1.15,2013-09-20 12:46:00,
2013-09-20 06:52:00,38.5,31.9,29.95,SSE,147,4.0,5.0,77,0.00,,,0.00,0,Wunderground v.1.15,2013-09-20 12:52:00,
2013-09-20 06:58:00,38.4,32.1,29.94,SE,145,4.0,7.0,78,0.00,,,0.00,0,Wunderground v.1.15,2013-09-20 12:58:00,
2013-09-20 07:04:00,38.4,32.1,29.94,SE,142,5.0,6.0,78,0.00,,,0.00,0,Wunderground v.1.15,2013-09-20 13:04:00,
2013-09-20 07:10:00,38.6,32.0,29.94,South,181,5.0,9.0,77,0.00,,,0.00,0,Wunderground v.1.15,2013-09-20 13:10:00,
2013-09-20 07:16:00,38.9,32.3,29.94,SE,130,7.0,9.0,77,0.00,,,0.00,5,Wunderground v.1.15,2013-09-20 13:16:00,
2013-09-20 07:22:00,39.2,32.3,29.94,South,186,6.0,7.0,76,0.00,,,0.00,7,Wunderground v.1.15,2013-09-20 13:22:00,
2013-09-20 07:30:00,39.3,32.0,29.94,SE,144,4.0,4.0,75,0.00,,,0.00,11,Wunderground v.1.15,2013-09-20 13:30:00,
2013-09-20 07:36:00,39.2,32.3,29.94,South,186,4.0,6.0,76,0.00,,,0.00,12,Wunderground v.1.15,2013-09-20 13:36:00,
2013-09-20 07:42:00,39.0,32.1,29.94,South,178,5.0,8.0,76,0.00,,,0.00,14,Wunderground v.1.15,2013-09-20 13:42:00,
2013-09-20 07:48:00,38.9,32.3,29.94,SSE,163,6.0,10.0,77,0.00,,,0.00,16,Wunderground v.1.15,2013-09-20 13:48:00,
2013-09-20 07:54:00,39.0,32.4,29.94,SE,140,5.0,7.0,77,0.00,,,0.00,58,Wunderground v.1.15,2013-09-20 13:54:00,
2013-09-20 08:00:00,39.5,32.9,29.94,SE,140,6.0,8.0,77,0.00,,,0.00,91,Wunderground v.1.15,2013-09-20 14:00:00,
2013-09-20 08:06:00,40.4,33.4,29.94,SSW,194,7.0,10.0,76,0.00,,,0.01,109,Wunderground v.1.15,2013-09-20 14:06:00,
2013-09-20 08:12:00,41.2,33.5,29.94,SE,134,7.0,10.0,74,0.00,,,0.01,123,Wunderground v.1.15,2013-09-20 14:12:00,
2013-09-20 08:18:00,42.0,34.3,29.94,SSE,149,7.0,10.0,74,0.00,,,0.01,139,Wunderground v.1.15,2013-09-20 14:18:00,
2013-09-20 08:24:00,43.1,34.3,29.94,SE,126,7.0,10.0,71,0.00,,,0.01,155,Wunderground v.1.15,2013-09-20 14:24:00,
2013-09-20 08:30:00,44.7,34.8,29.94,SE,135,8.0,8.0,68,0.00,,,0.01,176,Wunderground v.1.15,2013-09-20 14:30:00,
2013-09-20 08:36:00,45.8,35.1,29.94,ESE,113,8.0,10.0,66,0.00,,,0.01,190,Wunderground v.1.15,2013-09-20 14:36:00,
2013-09-20 08:42:00,46.6,35.1,29.94,SSE,149,7.0,7.0,64,0.00,,,0.01,207,Wunderground v.1.15,2013-09-20 14:42:00,
2013-09-20 08:48:00,47.3,35.7,29.94,SE,134,6.0,9.0,64,0.00,,,0.01,229,Wunderground v.1.15,2013-09-20 14:48:00,
2013-09-20 08:54:00,48.2,35.8,29.94,ESE,123,5.0,6.0,62,0.00,,,0.01,246,Wunderground v.1.15,2013-09-20 14:54:00,
2013-09-20 09:00:00,49.4,36.9,29.94,SE,141,5.0,6.0,62,0.00,,,0.01,265,Wunderground v.1.15,2013-09-20 15:00:00,
2013-09-20 09:06:00,50.7,36.5,29.93,SE,131,5.0,8.0,58,0.00,,,0.01,285,Wunderground v.1.15,2013-09-20 15:06:00,
2013-09-20 09:12:00,52.0,35.4,29.93,ESE,113,7.0,8.0,53,0.00,,,0.01,301,Wunderground v.1.15,2013-09-20 15:12:00,
2013-09-20 09:18:00,53.4,35.2,29.92,SE,128,10.0,12.0,50,0.00,,,0.01,322,Wunderground v.1.15,2013-09-20 15:18:00,
2013-09-20 09:24:00,54.6,35.3,29.92,ESE,121,9.0,12.0,48,0.00,,,0.01,341,Wunderground v.1.15,2013-09-20 15:24:00,
2013-09-20 09:30:00,55.5,35.0,29.92,SE,134,10.0,10.0,46,0.00,,,0.01,360,Wunderground v.1.15,2013-09-20 15:30:00,
2013-09-20 09:38:00,56.3,35.2,29.92,ESE,106,11.0,11.0,45,0.00,,,0.01,381,Wunderground v.1.15,2013-09-20 15:38:00,
2013-09-20 09:50:00,57.6,35.2,29.91,East,89,10.0,12.0,43,0.00,,,0.01,418,Wunderground v.1.15,2013-09-20 15:50:00,
2013-09-20 09:56:00,58.2,35.2,29.91,ESE,110,11.0,13.0,42,0.00,,,0.01,436,Wunderground v.1.15,2013-09-20 15:56:00,
2013-09-20 10:02:00,58.8,35.1,29.91,ESE,103,10.0,13.0,41,0.00,,,0.01,454,Wunderground v.1.15,2013-09-20 16:02:00,
2013-09-20 10:08:00,59.4,34.4,29.91,ESE,113,10.0,13.0,39,0.00,,,0.01,469,Wunderground v.1.15,2013-09-20 16:08:00,
2013-09-20 10:14:00,60.1,34.4,29.91,SE,138,11.0,14.0,38,0.00,,,0.01,487,Wunderground v.1.15,2013-09-20 16:14:00,
2013-09-20 10:20:00,60.7,34.9,29.90,SE,134,11.0,17.0,38,0.00,,,0.01,503,Wunderground v.1.15,2013-09-20 16:20:00,
2013-09-20 10:26:00,61.3,34.1,29.90,SE,142,11.0,17.0,36,0.00,,,0.01,519,Wunderground v.1.15,2013-09-20 16:26:00,
2013-09-20 10:32:00,61.8,34.5,29.89,SE,142,12.0,12.0,36,0.00,,,0.01,534,Wunderground v.1.15,2013-09-20 16:32:00,
2013-09-20 10:38:00,62.2,34.9,29.89,East,97,12.0,17.0,36,0.00,,,0.01,548,Wunderground v.1.15,2013-09-20 16:38:00,
2013-09-20 10:44:00,62.6,35.3,29.89,ESE,122,12.0,12.0,36,0.00,,,0.01,564,Wunderground v.1.15,2013-09-20 16:44:00,
2013-09-20 10:52:00,63.1,35.0,29.88,SE,134,12.0,13.0,35,0.00,,,0.01,584,Wunderground v.1.15,2013-09-20 16:52:00,
2013-09-20 10:58:00,63.7,35.5,29.88,East,94,11.0,13.0,35,0.00,,,0.01,596,Wunderground v.1.15,2013-09-20 16:58:00,
2013-09-20 11:04:00,64.3,35.3,29.88,ESE,106,11.0,12.0,34,0.00,,,0.01,610,Wunderground v.1.15,2013-09-20 17:04:00,
2013-09-20 11:10:00,64.5,35.5,29.88,ESE,110,11.0,11.0,34,0.00,,,0.01,624,Wunderground v.1.15,2013-09-20 17:10:00,
2013-09-20 11:16:00,65.0,35.2,29.87,ESE,103,11.0,13.0,33,0.00,,,0.01,636,Wunderground v.1.15,2013-09-20 17:16:00,
2013-09-20 11:22:00,65.4,34.8,29.86,SE,126,11.0,13.0,32,0.00,,,0.01,645,Wunderground v.1.15,2013-09-20 17:22:00,
2013-09-20 11:28:00,65.7,35.0,29.86,SE,135,12.0,15.0,32,0.00,,,0.01,656,Wunderground v.1.15,2013-09-20 17:28:00,
2013-09-20 11:34:00,65.9,35.2,29.86,SE,138,12.0,15.0,32,0.00,,,0.01,666,Wunderground v.1.15,2013-09-20 17:34:00,
2013-09-20 11:40:00,66.1,34.6,29.86,ESE,116,12.0,16.0,31,0.00,,,0.01,679,Wunderground v.1.15,2013-09-20 17:40:00,
2013-09-20 11:46:00,66.3,34.7,29.86,ESE,102,13.0,16.0,31,0.00,,,0.01,687,Wunderground v.1.15,2013-09-20 17:46:00,
2013-09-20 11:52:00,66.4,34.0,29.85,SE,126,14.0,14.0,30,0.00,,,0.01,696,Wunderground v.1.15,2013-09-20 17:52:00,
2013-09-20 11:58:00,66.7,34.3,29.84,East,101,13.0,18.0,30,0.00,,,0.01,708,Wunderground v.1.15,2013-09-20 17:58:00,
2013-09-20 12:04:00,66.8,33.5,29.84,ESE,106,13.0,18.0,29,0.00,,,0.01,717,Wunderground v.1.15,2013-09-20 18:04:00,
2013-09-20 12:10:00,67.1,33.8,29.84,SE,127,13.0,17.0,29,0.00,,,0.01,728,Wunderground v.1.15,2013-09-20 18:10:00,
2013-09-20 12:16:00,67.4,33.1,29.83,ESE,104,13.0,17.0,28,0.00,,,0.01,737,Wunderground v.1.15,2013-09-20 18:16:00,
2013-09-20 12:22:00,67.7,34.3,29.83,SE,140,13.0,15.0,29,0.00,,,0.01,745,Wunderground v.1.15,2013-09-20 18:22:00,
2013-09-20 12:28:00,68.2,33.8,29.83,East,98,13.0,15.0,28,0.00,,,0.01,752,Wunderground v.1.15,2013-09-20 18:28:00,
2013-09-20 12:34:00,68.7,33.3,29.83,East,100,14.0,14.0,27,0.00,,,0.01,756,Wunderground v.1.15,2013-09-20 18:34:00,
2013-09-20 12:40:00,69.3,33.9,29.82,East,97,13.0,13.0,27,0.00,,,0.01,761,Wunderground v.1.15,2013-09-20 18:40:00,
2013-09-20 12:46:00,69.6,34.1,29.81,ESE,106,13.0,16.0,27,0.00,,,0.01,765,Wunderground v.1.15,2013-09-20 18:46:00,
2013-09-20 12:52:00,69.8,34.3,29.81,SE,133,13.0,16.0,27,0.00,,,0.01,770,Wunderground v.1.15,2013-09-20 18:52:00,
2013-09-20 12:58:00,70.0,33.5,29.81,SE,138,14.0,16.0,26,0.00,,,0.01,773,Wunderground v.1.15,2013-09-20 18:58:00,
2013-09-20 13:06:00,69.9,33.4,29.80,ESE,111,16.0,21.0,26,0.00,,,0.01,777,Wunderground v.1.15,2013-09-20 19:06:00,
2013-09-20 13:12:00,70.1,34.5,29.80,ESE,109,15.0,17.0,27,0.00,,,0.01,777,Wunderground v.1.15,2013-09-20 19:12:00,
2013-09-20 13:18:00,70.4,32.9,29.80,ESE,122,15.0,18.0,25,0.00,,,0.01,779,Wunderground v.1.15,2013-09-20 19:18:00,
2013-09-20 13:24:00,70.7,34.1,29.79,SE,133,15.0,18.0,26,0.00,,,0.01,777,Wunderground v.1.15,2013-09-20 19:24:00,
2013-09-20 13:30:00,71.1,33.5,29.79,ESE,103,14.0,15.0,25,0.00,,,0.01,780,Wunderground v.1.15,2013-09-20 19:30:00,
2013-09-20 13:38:00,71.5,33.8,29.78,ESE,121,14.0,18.0,25,0.00,,,0.01,780,Wunderground v.1.15,2013-09-20 19:38:00,
2013-09-20 13:44:00,71.9,34.1,29.78,SE,129,14.0,14.0,25,0.00,,,0.01,780,Wunderground v.1.15,2013-09-20 19:44:00,
2013-09-20 13:50:00,72.4,33.5,29.78,SE,129,14.0,14.0,24,0.00,,,0.01,780,Wunderground v.1.15,2013-09-20 19:50:00,
2013-09-20 13:56:00,72.5,34.7,29.78,SE,132,15.0,22.0,25,0.00,,,0.01,777,Wunderground v.1.15,2013-09-20 19:56:00,
2013-09-20 14:02:00,72.7,33.8,29.77,SE,146,14.0,16.0,24,0.00,,,0.01,775,Wunderground v.1.15,2013-09-20 20:02:00,
2013-09-20 14:08:00,72.9,34.0,29.77,SE,131,13.0,16.0,24,0.00,,,0.01,772,Wunderground v.1.15,2013-09-20 20:08:00,
2013-09-20 14:14:00,73.2,34.2,29.76,ESE,120,13.0,14.0,24,0.00,,,0.01,768,Wunderground v.1.15,2013-09-20 20:14:00,
2013-09-20 14:20:00,73.4,34.4,29.76,SE,144,14.0,14.0,24,0.00,,,0.01,766,Wunderground v.1.15,2013-09-20 20:20:00,
2013-09-20 14:26:00,73.5,33.4,29.76,SE,146,14.0,15.0,23,0.00,,,0.01,763,Wunderground v.1.15,2013-09-20 20:26:00,
2013-09-20 14:32:00,73.7,33.6,29.77,SSE,151,13.0,15.0,23,0.00,,,0.01,758,Wunderground v.1.15,2013-09-20 20:32:00,
2013-09-20 14:38:00,73.7,33.6,29.76,ESE,123,12.0,15.0,23,0.00,,,0.01,751,Wunderground v.1.15,2013-09-20 20:38:00,
2013-09-20 14:44:00,74.0,32.7,29.75,SSE,161,13.0,15.0,22,0.00,,,0.01,745,Wunderground v.1.15,2013-09-20 20:44:00,
2013-09-20 14:50:00,74.0,33.8,29.75,SSE,148,13.0,18.0,23,0.00,,,0.01,738,Wunderground v.1.15,2013-09-20 20:50:00,
2013-09-20 14:56:00,74.2,35.1,29.75,SE,128,13.0,18.0,24,0.00,,,0.01,731,Wunderground v.1.15,2013-09-20 20:56:00,
2013-09-20 15:04:00,74.1,33.9,29.74,South,176,14.0,15.0,23,0.00,,,0.01,719,Wunderground v.1.15,2013-09-20 21:04:00,
2013-09-20 15:10:00,74.2,34.0,29.74,SSE,167,14.0,14.0,23,0.00,,,0.01,710,Wunderground v.1.15,2013-09-20 21:10:00,
2013-09-20 15:20:00,74.4,34.2,29.73,SE,134,14.0,14.0,23,0.00,,,0.01,698,Wunderground v.1.15,2013-09-20 21:20:00,
2013-09-20 15:28:00,74.6,33.2,29.73,SSE,158,13.0,15.0,22,0.00,,,0.01,684,Wunderground v.1.15,2013-09-20 21:28:00,
2013-09-20 15:34:00,74.6,33.2,29.72,SSE,165,14.0,17.0,22,0.00,,,0.01,671,Wunderground v.1.15,2013-09-20 21:34:00,
2013-09-20 15:40:00,74.6,33.2,29.72,SSE,166,13.0,15.0,22,0.00,,,0.01,661,Wunderground v.1.15,2013-09-20 21:40:00,
2013-09-20 15:46:00,74.7,32.1,29.72,SSE,167,13.0,18.0,21,0.00,,,0.01,650,Wunderground v.1.15,2013-09-20 21:46:00,
2013-09-20 15:52:00,74.7,32.1,29.72,SSE,155,14.0,15.0,21,0.00,,,0.01,636,Wunderground v.1.15,2013-09-20 21:52:00,
2013-09-20 15:58:00,74.7,32.1,29.72,SSE,155,15.0,19.0,21,0.00,,,0.01,624,Wunderground v.1.15,2013-09-20 21:58:00,
2013-09-20 16:04:00,74.5,32.0,29.72,SSE,165,15.0,17.0,21,0.00,,,0.01,612,Wunderground v.1.15,2013-09-20 22:04:00,
2013-09-20 16:10:00,74.4,31.9,29.71,SSE,160,14.0,17.0,21,0.00,,,0.01,596,Wunderground v.1.15,2013-09-20 22:10:00,
2013-09-20 16:18:00,74.6,32.1,29.71,South,178,13.0,17.0,21,0.00,,,0.01,578,Wunderground v.1.15,2013-09-20 22:18:00,
2013-09-20 16:24:00,74.7,32.1,29.71,SSE,165,12.0,13.0,21,0.00,,,0.01,566,Wunderground v.1.15,2013-09-20 22:24:00,
2013-09-20 16:32:00,74.7,32.1,29.70,ESE,123,13.0,14.0,21,0.00,,,0.01,554,Wunderground v.1.15,2013-09-20 22:32:00,
2013-09-20 16:38:00,74.6,30.9,29.70,SE,140,12.0,14.0,20,0.00,,,0.01,536,Wunderground v.1.15,2013-09-20 22:38:00,
2013-09-20 16:44:00,74.7,32.1,29.70,SE,142,12.0,16.0,21,0.00,,,0.01,527,Wunderground v.1.15,2013-09-20 22:44:00,
2013-09-20 16:52:00,74.6,30.9,29.69,South,176,13.0,15.0,20,0.00,,,0.01,504,Wunderground v.1.15,2013-09-20 22:52:00,
2013-09-20 16:58:00,74.6,30.9,29.69,SSE,149,13.0,15.0,20,0.00,,,0.01,478,Wunderground v.1.15,2013-09-20 22:58:00,
2013-09-20 17:04:00,74.6,30.9,29.69,South,175,13.0,17.0,20,0.00,,,0.01,454,Wunderground v.1.15,2013-09-20 23:04:00,
2013-09-20 17:10:00,74.5,29.5,29.69,SSE,162,14.0,14.0,19,0.00,,,0.01,432,Wunderground v.1.15,2013-09-20 23:10:00,
2013-09-20 17:16:00,74.4,29.4,29.68,SSE,166,14.0,14.0,19,0.00,,,0.01,417,Wunderground v.1.15,2013-09-20 23:16:00,
2013-09-20 17:22:00,74.2,29.3,29.68,South,170,14.0,14.0,19,0.00,,,0.01,396,Wunderground v.1.15,2013-09-20 23:22:00,
2013-09-20 17:28:00,74.2,29.3,29.68,SSE,162,13.0,19.0,19,0.00,,,0.01,376,Wunderground v.1.15,2013-09-20 23:28:00,
2013-09-20 17:34:00,74.0,29.1,29.68,SSE,159,14.0,14.0,19,0.00,,,0.01,357,Wunderground v.1.15,2013-09-20 23:34:00,
2013-09-20 17:42:00,73.9,29.0,29.68,South,172,12.0,15.0,19,0.00,,,0.01,330,Wunderground v.1.15,2013-09-20 23:42:00,
2013-09-20 17:48:00,73.9,29.0,29.67,South,170,11.0,15.0,19,0.00,,,0.01,311,Wunderground v.1.15,2013-09-20 23:48:00,
2013-09-20 17:54:00,73.9,29.0,29.67,SSE,159,11.0,12.0,19,0.00,,,0.01,292,Wunderground v.1.15,2013-09-20 23:54:00,
2013-09-20 18:00:00,73.8,27.6,29.67,South,186,11.0,11.0,18,0.00,,,0.01,272,Wunderground v.1.15,2013-09-21 00:00:00,
2013-09-20 18:06:00,73.7,28.8,29.67,South,184,11.0,11.0,19,0.00,,,0.01,253,Wunderground v.1.15,2013-09-21 00:06:00,
2013-09-20 18:12:00,73.5,28.7,29.67,South,189,11.0,13.0,19,0.00,,,0.01,234,Wunderground v.1.15,2013-09-21 00:12:00,
2013-09-20 18:18:00,73.4,28.6,29.67,SSE,161,10.0,13.0,19,0.00,,,0.01,213,Wunderground v.1.15,2013-09-21 00:18:00,
2013-09-20 18:24:00,73.1,29.6,29.67,SSW,194,10.0,13.0,20,0.00,,,0.01,190,Wunderground v.1.15,2013-09-21 00:24:00,
2013-09-20 18:30:00,72.9,29.4,29.66,SSW,198,9.0,9.0,20,0.00,,,0.01,167,Wunderground v.1.15,2013-09-21 00:30:00,
2013-09-20 18:36:00,72.6,29.2,29.66,South,182,10.0,11.0,20,0.00,,,0.01,144,Wunderground v.1.15,2013-09-21 00:36:00,
2013-09-20 18:42:00,72.2,28.9,29.66,South,169,11.0,11.0,20,0.00,,,0.01,121,Wunderground v.1.15,2013-09-21 00:42:00,
2013-09-20 18:48:00,71.9,29.8,29.66,SSW,194,10.0,11.0,21,0.00,,,0.01,100,Wunderground v.1.15,2013-09-21 00:48:00,
2013-09-20 18:54:00,71.6,30.7,29.66,South,182,7.0,9.0,22,0.00,,,0.01,79,Wunderground v.1.15,2013-09-21 00:54:00,
2013-09-20 19:00:00,71.2,30.4,29.65,SSW,192,8.0,8.0,22,0.00,,,0.01,62,Wunderground v.1.15,2013-09-21 01:00:00,
2013-09-20 19:06:00,70.8,30.0,29.66,SSW,200,8.0,9.0,22,0.00,,,0.01,46,Wunderground v.1.15,2013-09-21 01:06:00,
2013-09-20 19:12:00,70.3,30.7,29.65,SSW,202,8.0,8.0,23,0.00,,,0.01,32,Wunderground v.1.15,2013-09-21 01:12:00,
2013-09-20 19:18:00,69.8,31.4,29.65,South,187,6.0,8.0,24,0.00,,,0.01,12,Wunderground v.1.15,2013-09-21 01:18:00,
2013-09-20 19:24:00,69.0,30.7,29.65,SSW,193,6.0,7.0,24,0.00,,,0.01,9,Wunderground v.1.15,2013-09-21 01:24:00,
2013-09-20 19:30:00,68.2,31.0,29.65,South,185,7.0,7.0,25,0.00,,,0.01,5,Wunderground v.1.15,2013-09-21 01:30:00,
2013-09-20 19:36:00,67.4,30.3,29.65,South,174,7.0,9.0,25,0.00,,,0.01,0,Wunderground v.1.15,2013-09-21 01:36:00,
2013-09-20 19:42:00,66.9,29.9,29.65,South,171,8.0,10.0,25,0.00,,,0.01,0,Wunderground v.1.15,2013-09-21 01:42:00,
2013-09-20 19:48:00,66.5,29.6,29.65,South,174,7.0,10.0,25,0.00,,,0.01,0,Wunderground v.1.15,2013-09-21 01:48:00,
2013-09-20 19:54:00,65.9,29.1,29.66,SSE,165,7.0,7.0,25,0.00,,,0.01,0,Wunderground v.1.15,2013-09-21 01:54:00,
2013-09-20 20:00:00,65.2,28.5,29.66,SSE,167,7.0,9.0,25,0.00,,,0.01,0,Wunderground v.1.15,2013-09-21 02:00:00,
2013-09-20 20:06:00,64.8,28.1,29.66,South,170,8.0,10.0,25,0.00,,,0.01,0,Wunderground v.1.15,2013-09-21 02:06:00,
2013-09-20 20:12:00,64.8,28.1,29.66,SSE,167,9.0,10.0,25,0.00,,,0.01,0,Wunderground v.1.15,2013-09-21 02:12:00,
2013-09-20 20:18:00,65.0,28.3,29.66,South,182,10.0,10.0,25,0.00,,,0.01,0,Wunderground v.1.15,2013-09-21 02:18:00,
2013-09-20 20:24:00,65.2,28.5,29.66,South,180,10.0,10.0,25,0.00,,,0.01,0,Wunderground v.1.15,2013-09-21 02:24:00,
2013-09-20 20:30:00,65.3,28.5,29.66,South,177,9.0,9.0,25,0.00,,,0.01,0,Wunderground v.1.15,2013-09-21 02:30:00,
2013-09-20 20:36:00,65.3,29.5,29.66,SSW,198,9.0,11.0,26,0.00,,,0.01,0,Wunderground v.1.15,2013-09-21 02:36:00,
2013-09-20 20:42:00,65.1,29.3,29.66,SSE,163,9.0,10.0,26,0.00,,,0.01,0,Wunderground v.1.15,2013-09-21 02:42:00,
2013-09-20 20:48:00,64.9,29.2,29.66,SSE,168,8.0,11.0,26,0.00,,,0.01,0,Wunderground v.1.15,2013-09-21 02:48:00,
2013-09-20 20:54:00,64.7,29.9,29.66,South,183,9.0,16.0,27,0.00,,,0.01,0,Wunderground v.1.15,2013-09-21 02:54:00,
2013-09-20 21:00:00,64.5,29.7,29.66,SSE,168,9.0,9.0,27,0.00,,,0.01,0,Wunderground v.1.15,2013-09-21 03:00:00,
2013-09-20 21:06:00,64.2,29.5,29.66,South,178,8.0,14.0,27,0.00,,,0.01,0,Wunderground v.1.15,2013-09-21 03:06:00,
2013-09-20 21:12:00,64.3,28.7,29.65,South,173,10.0,13.0,26,0.00,,,0.01,0,Wunderground v.1.15,2013-09-21 03:12:00,
2013-09-20 21:20:00,64.2,28.6,29.65,South,173,9.0,9.0,26,0.00,,,0.01,0,Wunderground v.1.15,2013-09-21 03:20:00,
2013-09-20 21:26:00,64.2,28.6,29.65,South,174,10.0,10.0,26,0.00,,,0.01,0,Wunderground v.1.15,2013-09-21 03:26:00,
2013-09-20 21:32:00,64.0,28.4,29.66,South,181,10.0,10.0,26,0.00,,,0.01,0,Wunderground v.1.15,2013-09-21 03:32:00,
2013-09-20 21:38:00,63.7,28.1,29.66,South,174,10.0,12.0,26,0.00,,,0.01,0,Wunderground v.1.15,2013-09-21 03:38:00,
2013-09-20 21:44:00,63.5,27.0,29.66,South,175,10.0,11.0,25,0.00,,,0.01,0,Wunderground v.1.15,2013-09-21 03:44:00,
2013-09-20 21:50:00,63.3,26.8,29.66,SSE,163,10.0,13.0,25,0.00,,,0.01,0,Wunderground v.1.15,2013-09-21 03:50:00,
2013-09-20 21:56:00,63.2,26.8,29.66,South,169,10.0,13.0,25,0.00,,,0.01,0,Wunderground v.1.15,2013-09-21 03:56:00,
2013-09-20 22:02:00,63.1,25.7,29.66,South,176,10.0,10.0,24,0.00,,,0.01,0,Wunderground v.1.15,2013-09-21 04:02:00,
2013-09-20 22:04:00,63.0,26.6,29.66,South,182,10.0,10.0,25,0.00,,,0.01,0,Wunderground v.1.15,2013-09-21 04:04:00,
2013-09-20 22:08:00,62.9,26.5,29.66,South,184,10.0,10.0,25,0.00,,,0.01,0,Wunderground v.1.15,2013-09-21 04:08:00,
2013-09-20 22:14:00,62.6,27.2,29.66,SSW,203,7.0,9.0,26,0.00,,,0.01,0,Wunderground v.1.15,2013-09-21 04:14:00,
2013-09-20 22:20:00,61.8,26.5,29.66,SSW,199,5.0,5.0,26,0.00,,,0.01,0,Wunderground v.1.15,2013-09-21 04:20:00,
2013-09-20 22:26:00,61.0,25.8,29.66,SSW,195,7.0,10.0,26,0.00,,,0.01,0,Wunderground v.1.15,2013-09-21 04:26:00,
2013-09-20 22:32:00,60.8,25.7,29.65,SSE,167,8.0,12.0,26,0.00,,,0.01,0,Wunderground v.1.15,2013-09-21 04:32:00,
2013-09-20 22:38:00,61.0,25.8,29.65,SSE,166,10.0,14.0,26,0.00,,,0.01,0,Wunderground v.1.15,2013-09-21 04:38:00,
2013-09-20 22:44:00,61.2,26.0,29.65,South,171,10.0,10.0,26,0.00,,,0.01,0,Wunderground v.1.15,2013-09-21 04:44:00,
2013-09-20 22:50:00,61.3,25.1,29.65,SSE,164,10.0,10.0,25,0.00,,,0.01,0,Wunderground v.1.15,2013-09-21 04:50:00,
2013-09-20 22:58:00,61.5,25.3,29.65,SSE,165,10.0,12.0,25,0.00,,,0.01,0,Wunderground v.1.15,2013-09-21 04:58:00,
2013-09-20 23:04:00,61.7,25.5,29.65,SSE,167,12.0,12.0,25,0.00,,,0.01,0,Wunderground v.1.15,2013-09-21 05:04:00,
2013-09-20 23:10:00,61.7,25.5,29.65,SSE,165,11.0,11.0,25,0.00,,,0.01,0,Wunderground v.1.15,2013-09-21 05:10:00,
2013-09-20 23:16:00,61.6,25.4,29.65,South,171,11.0,13.0,25,0.00,,,0.01,0,Wunderground v.1.15,2013-09-21 05:16:00,
2013-09-20 23:22:00,61.4,25.2,29.65,SSE,167,11.0,16.0,25,0.00,,,0.01,0,Wunderground v.1.15,2013-09-21 05:22:00,
2013-09-20 23:28:00,61.2,25.1,29.65,South,169,10.0,16.0,25,0.00,,,0.01,0,Wunderground v.1.15,2013-09-21 05:28:00,
2013-09-20 23:34:00,61.1,25.0,29.65,South,171,9.0,10.0,25,0.00,,,0.01,0,Wunderground v.1.15,2013-09-21 05:34:00,
2013-09-20 23:44:00,61.1,25.0,29.65,South,170,9.0,9.0,25,0.00,,,0.01,0,Wunderground v.1.15,2013-09-21 05:44:00,
2013-09-20 23:52:00,60.8,24.7,29.64,SSE,167,9.0,9.0,25,0.00,,,0.01,0,Wunderground v.1.15,2013-09-21 05:52:00,
2013-09-20 23:58:00,60.7,24.6,29.64,SSE,160,9.0,10.0,25,0.00,,,0.00,0,Wunderground v.1.15,2013-09-21 05:58:00,